Regional Weather Roundup
Issued by NWS Cleveland, OH

Home | Current Version | Previous Version | Text Only | Print | Product List | Glossary On
Versions: 1 2 3 4 5 6 7 8 9 10 11 12 13 14 15 16 17 18 19 20 21 22 23 24 25 26 27 28 29 30 31 32 33 34 35 36 37 38 39 40 41 42 43 44 45 46 47 48 49 50
000
ASUS41 KCLE 231910
RWRCLE
OHIO REGIONAL WEATHER ROUNDUP
NATIONAL WEATHER SERVICE WILMINGTON, OH
300 PM EDT SAT AUG 23 2014

NOTE: "FAIR" INDICATES FEW OR NO CLOUDS BELOW 12,000 FEET WITH NO
SIGNIFICANT WEATHER AND/OR OBSTRUCTIONS TO VISIBILITY.

OHZ001>008-015>018-024>027-034-035-043-044-232000-
   NORTHWEST OHIO

CITY           SKY/WX    TMP DP  RH WIND       PRES   REMARKS
DEFIANCE       CLOUDY    82  70  66 E6        30.04S
FINDLAY        PTSUNNY   81  69  67 NE7       30.03S
TOLEDO EXPRESS MOSUNNY   82  64  54 NE8       30.05S
TOLEDO METCALF MOSUNNY   79  67  66 NE9       30.07S
LIMA           PTSUNNY   83  71  67 NE6       30.04S
$$

OHZ009>014-019>023-028>033-038-089-232000-
   NORTHEAST OHIO

CITY           SKY/WX    TMP DP  RH WIND       PRES   REMARKS
CLE-HOPKINS    MOSUNNY   77  66  68 N12       30.07S
CLE-LAKEFRONT  SUNNY     76  68  76 NE17      30.04F
CUY CO. ARPT   MOSUNNY   79  70  73 E12       30.05S
LORAIN-ELYRIA  SUNNY     82  67  60 NE9       30.05F
ASHTABULA      MOSUNNY   75  65  70 VRB7      30.07R
AKRON-CANTON   MOSUNNY   81  63  54 N6        30.04S
WOOSTER        CLOUDY    82  66  58 CALM      30.05F
MANSFIELD      PTSUNNY   81  66  60 N5        30.05F
YOUNGSTOWN     PTSUNNY   78  63  59 NW5       30.04F
$$

OHZ042-051>053-060>062-070>072-077>081-232000-
  SOUTHWEST OHIO

CITY           SKY/WX    TMP DP  RH WIND       PRES   REMARKS
CINC-COVINGTON PTSUNNY   88  70  55 CALM      30.01S HX  93
CINC-LUNKEN    MOSUNNY   87  72  60 VRB6      29.99F HX  93
HAMILTON       MOSUNNY   88  72  58 CALM      30.00F HX  94
DAYTON         PTSUNNY   84  73  69 NE12      30.03S HX  90
WRIGHT-PAT AFB MOSUNNY   84  73  69 NE9       30.01F HX  90
DAYTON GENERAL PTSUNNY   87  73  62 NE3       30.00F HX  94
WILMINGTON     PTSUNNY   81  70  69 NE5       30.02S
$$

OHZ036-037-039>041-045>050-054>059-063>069-073>076-082>088-232000-
  CENTRAL AND SOUTHEAST OHIO

CITY           SKY/WX    TMP DP  RH WIND       PRES   REMARKS
COLUMBUS       PTSUNNY   86  67  52 CALM      30.01F
OSU AIRPORT    PTSUNNY   84  66  54 N5        30.02F
BOLTON FIELD   CLOUDY    79  73  83 SE5       30.03S
RICKENBACK AFB MOSUNNY   84  63  49 E7        30.01F
NEWARK         PTSUNNY   85  67  54 CALM      30.02S
MARION         PTSUNNY   82  69  64 NE7       30.04S
LANCASTER      MOSUNNY   84  68  58 E5        30.03S
ZANESVILLE     PTSUNNY   82  66  58 N5        30.02F
NEW PHILLY     MOSUNNY   83  67  58 N8        30.03F
$$



USA.gov is the U.S. government's official web portal to all federal, state and local government web resources and services.